User: anonymous   Login
Location: Bartlow
(52.0833°N, 0.3167°E)
Time: 02:20:01
(UTC+00:00)
Language:

Cosmos 2266 Rocket - Orbit

View from above orbital plane
View from above orbital plane
View from above satellite
View from above satellite

Ground track
Ground track

The orbit data is extracted from the following two-line orbital elements,

1 22889U 93070B   24062.73760627  .00000131  00000-0  11407-3 0  9991
2 22889  82.9438 294.2346 0049281 198.1886 161.7511 13.78082208525115
Epoch (UTC): 02 March 2024 17:42:09
Eccentricity: 0.0049281
inclination: 82.9438°
perigee height: 934 km
apogee height: 1007 km
right ascension of ascending node: 294.2346°
argument of perigee: 198.1886°
revolutions per day: 13.78082208
mean anomaly at epoch: 161.7511°
orbit number at epoch: 52511

The dashed part of the orbit path shows where the satellite is in the earth's shadow,  

DLR